[[{"header":{"parameterUnit":"m.s-1","parameterCategory":1,"la1":30.2991,"la2":30.254,"lo1":-89.0895,"lo2":-89.0444,"dy":0.0017,"dx":0.0017,"nx":28,"ny":28,"refTime":"2024-08-13T21:00:00:Z","depth":0,"parameterNumber":2,"parameterNumberName":"U-component_of_WINDS"},"data":[0,0,0,0,0,0,0,0,0,0,0,0,0,0,0,0,0,0,0,0,0,0,0,0,0,0,0,0,0,0,0,0,0,0,0,0,0,0,0,0,0,0,0,0,0,0,0,0,0,0,0,0,0,0,0,0,0,0,0.4647,0.4646,0,0.452,0.4519,0.4517,0.4412,0.4411,0.441,0.4409,0.4274,0.4272,0.4269,0,0,0,0,0,0,0,0,0,0,0,0,0,0.4797,0.4795,0.4647,0.4646,0.4644,0.452,0.4519,0.4517,0.4412,0.4411,0.4409,0.4408,0.4275,0.4272,0.4269,0,0,0,0,0,0,0,0,0,0,0,0,0,0.4707,0.4794,0.4648,0.4577,0.457,0.4521,0.4519,0.4516,0.4412,0.4411,0.4409,0.4408,0.4276,0.4273,0.4269,0.4279,0,0,0.4257,0.4256,0,0,0,0,0,0,0,0,0.4712,0.4702,0.4589,0.4582,0.4573,0.448,0.4522,0.4437,0.4413,0.4472,0.4409,0.4407,0.4344,0.4335,0.4314,0.4272,0.4266,0.4257,0.4255,0.4253,0.4252,0,0,0,0,0,0,0,0.4719,0.4707,0.4597,0.4588,0.4578,0.4551,0.4536,0.4505,0.4419,0.4467,0.4459,0.4445,0.4339,0.4318,0.431,0.4265,0.4257,0.4254,0.4251,0.425,0.4226,0.4228,0,0,0,0,0,0,0.4736,0.4713,0.4601,0.4593,0.464,0.455,0.4533,0.4512,0.4419,0.4403,0.4447,0.4441,0.4325,0.4315,0.4305,0.4312,0.4253,0.4249,0.4247,0.4225,0.4227,0.4228,0,0,0,0,0,0,0.474,0.4727,0.4606,0.4651,0.4633,0.4549,0.4526,0.451,0.4489,0.4404,0.4388,0.4441,0.4324,0.4311,0.4287,0.4305,0.4248,0.4244,0.4223,0.4225,0.4227,0.4324,0,0,0,0,0,0,0.4745,0.4729,0.4733,0.4652,0.4631,0.4591,0.4527,0.4509,0.4483,0.4474,0.4394,0.4379,0.4321,0.4293,0.4283,0.4299,0.4241,0.4221,0.4224,0.4227,0.4319,0.433,0.4339,0,0,0,0,0,0.475,0.4763,0.4733,0.472,0.4634,0.4592,0.458,0.4514,0.4485,0.4487,0.4433,0.4382,0.4305,0.4291,0.4279,0.4295,0.4219,0.4223,0.4226,0.4314,0.4328,0.4339,0,0,0,0,0,0,0.4846,0.4751,0.4717,0.4704,0.4657,0.4574,0.4575,0.453,0.4489,0.4482,0.4401,0.4384,0.4369,0.4329,0.4315,0.43,0.4256,0.4257,0.4327,0.4338,0.4348,0.4358,0.4238,0,0,0,0,0,0.4867,0.4842,0.4759,0.4756,0.4735,0.466,0.4639,0.4593,0.454,0.4519,0.4463,0.4413,0.4377,0.4356,0.4318,0.4313,0.4295,0.4318,0.4328,0.4336,0.4338,0.4334,0.4344,0.4241,0.4241,0.4241,0,0,0.4907,0.4852,0.4841,0.4774,0.4732,0.4708,0.4643,0.4619,0.46,0.4515,0.4489,0.4447,0.4386,0.4372,0.4363,0.4338,0.4363,0.4341,0.4349,0.4346,0.4339,0.4349,0.4358,0.4243,0.4243,0.4242,0,0,0.4968,0.4924,0.4918,0.4878,0.4816,0.4767,0.4766,0.469,0.4659,0.4633,0.4569,0.4545,0.4485,0.4445,0.4417,0.4467,0.4418,0.4457,0.4508,0.4505,0.4513,0.452,0.4539,0.4546,0.4459,0.4459,0.4459,0,0.5026,0.4987,0.4919,0.4901,0.4874,0.4798,0.479,0.4754,0.4683,0.4666,0.464,0.4566,0.4519,0.4496,0.4508,0.4488,0.4484,0.4465,0.4518,0.4524,0.4529,0.4546,0.4553,0.4464,0.4464,0.4463,0.4463,0,0.5062,0.5037,0.5038,0.4975,0.4948,0.4935,0.4864,0.4845,0.4802,0.4756,0.4731,0.4673,0.4623,0.4614,0.4571,0.4585,0.4572,0.4533,0.4487,0.4546,0.456,0.4566,0.4472,0.447,0.4468,0.4467,0,0,0.5177,0.5079,0.5081,0.5052,0.4979,0.4958,0.4942,0.4896,0.4882,0.4836,0.4821,0.4774,0.4738,0.4706,0.4658,0.4656,0.47,0.4617,0.4614,0.4635,0.4714,0.4744,0.4752,0.4669,0.4669,0.467,0.4719,0,0.5227,0.5196,0.5136,0.5123,0.51,0.5028,0.5015,0.4969,0.4926,0.4899,0.485,0.4819,0.4773,0.4754,0.4749,0.4696,0.4715,0.4692,0.4653,0.4653,0.4671,0.4759,0.479,0.4839,0.4724,0.4725,0.4726,0,0.528,0.5242,0.5228,0.516,0.5148,0.5137,0.5091,0.5066,0.5013,0.4982,0.4948,0.4896,0.4876,0.4834,0.4805,0.4791,0.4772,0.4744,0.4744,0.4737,0.4693,0.4755,0.4853,0.486,0.4734,0.4733,0.4733,0,0.5368,0.5312,0.5297,0.5274,0.5194,0.5188,0.5154,0.51,0.5077,0.5036,0.502,0.4978,0.4954,0.4922,0.486,0.4835,0.4838,0.4791,0.4811,0.4813,0.4814,0.4815,0.491,0.4803,0.4803,0.4803,0.4802,0,0.5429,0.5423,0.5335,0.5326,0.5318,0.5249,0.5242,0.5202,0.5155,0.5136,0.5071,0.5055,0.4974,0.4949,0.49,0.4884,0.4874,0.4848,0.4835,0.4853,0.4857,0.4839,0.4834,0.4804,0.4804,0.4804,0.4803,0,0.5524,0.5464,0.5444,0.5371,0.5353,0.535,0.5287,0.5276,0.523,0.5207,0.5198,0.5125,0.5092,0.5028,0.4975,0.4943,0.4938,0.4915,0.4956,0.4948,0.4972,0.4971,0.5059,0.5067,0.4956,0.4957,0.4958,0,0.5567,0.5561,0.549,0.5474,0.5443,0.5417,0.5394,0.5327,0.5305,0.5247,0.5242,0.5205,0.5171,0.5121,0.5063,0.5024,0.4999,0.5033,0.4993,0.5012,0.5,0.5001,0.5001,0.5042,0.5044,0.5045,0.5046,0,0.565,0.5622,0.5592,0.5553,0.5528,0.5493,0.5454,0.5445,0.5368,0.5347,0.5314,0.5288,0.5237,0.52,0.5153,0.5117,0.5069,0.506,0.5062,0.5081,0.5105,0.5093,0.4981,0.5057,0.5056,0.5055,0.5055,0.5054,0.572,0.5712,0.5662,0.5631,0.5596,0.5562,0.5549,0.5503,0.5474,0.5428,0.539,0.536,0.5309,0.5241,0.5209,0.5184,0.5161,0.5164,0.5165,0.5167,0.5175,0.511,0.5175,0.5175,0.5174,0.5174,0.5174,0,0.58,0.5764,0.5737,0.5687,0.5664,0.5623,0.5579,0.5562,0.5537,0.5494,0.5464,0.5426,0.5391,0.5332,0.5292,0.5284,0.5261,0.5276,0.5275,0.5268,0.5198,0.52,0.5295,0.5295,0.5295,0.5295,0.5295,0.5295,0.5838,0.5824,0.5791,0.5759,0.5723,0.5695,0.5674,0.5643,0.5608,0.557,0.5542,0.5504,0.5455,0.5412,0.5378,0.5362,0.535,0.5372,0.5349,0.5284,0.5273,0.5262,0.5263,0.537,0.537,0.542,0.5421,0.5421]},{"header":{"parameterUnit":"m.s-1","parameterCategory":1,"la1":30.2991,"la2":30.254,"lo1":-89.0895,"lo2":-89.0444,"dy":0.0017,"dx":0.0017,"nx":28,"ny":28,"refTime":"2024-08-13T21:00:00:Z","depth":0,"parameterNumber":3,"parameterNumberName":"V-component_of_WINDS"},"data":[0,0,0,0,0,0,0,0,0,0,0,0,0,0,0,0,0,0,0,0,0,0,0,0,0,0,0,0,0,0,0,0,0,0,0,0,0,0,0,0,0,0,0,0,0,0,0,0,0,0,0,0,0,0,0,0,0,0,0.2207,0.2209,0,0.2396,0.2398,0.24,0.2545,0.2546,0.2548,0.2549,0.2743,0.2747,0.2751,0,0,0,0,0,0,0,0,0,0,0,0,0,0.197,0.1973,0.2207,0.2209,0.2212,0.2396,0.2398,0.2401,0.2545,0.2546,0.2548,0.255,0.2742,0.2746,0.2751,0,0,0,0,0,0,0,0,0,0,0,0,0,0.2107,0.1975,0.2207,0.2306,0.2317,0.2395,0.2398,0.2402,0.2544,0.2546,0.2548,0.255,0.274,0.2746,0.2752,0.2747,0,0,0.277,0.2772,0,0,0,0,0,0,0,0,0.2099,0.2116,0.2289,0.2299,0.2311,0.2449,0.2386,0.2518,0.2544,0.2458,0.2549,0.2551,0.2644,0.2657,0.2689,0.2756,0.2765,0.277,0.2774,0.2776,0.2778,0,0,0,0,0,0,0,0.2089,0.2108,0.2282,0.2291,0.2305,0.234,0.2362,0.2412,0.2537,0.2466,0.2476,0.2497,0.265,0.2682,0.2694,0.2768,0.277,0.2775,0.2779,0.2781,0.2838,0.2836,0,0,0,0,0,0,0.2064,0.2099,0.2276,0.2288,0.2208,0.2343,0.2367,0.2403,0.2537,0.2559,0.2495,0.2503,0.2672,0.2687,0.2701,0.2703,0.2776,0.2782,0.2785,0.284,0.2837,0.2835,0,0,0,0,0,0,0.2059,0.2079,0.2268,0.2197,0.2223,0.2345,0.2384,0.2405,0.2438,0.2559,0.2582,0.2505,0.2674,0.2693,0.2734,0.2712,0.2784,0.279,0.2842,0.2839,0.2836,0.2706,0,0,0,0,0,0,0.2051,0.2076,0.2076,0.2195,0.2227,0.2298,0.2382,0.2408,0.2448,0.246,0.2575,0.2596,0.2677,0.2724,0.274,0.2721,0.2794,0.2845,0.2841,0.2837,0.2713,0.2699,0.2687,0,0,0,0,0,0.2042,0.2033,0.2075,0.2096,0.2229,0.2296,0.2314,0.2407,0.2445,0.2446,0.2523,0.2592,0.2712,0.2727,0.2746,0.2728,0.2846,0.2842,0.2837,0.2719,0.2702,0.2688,0,0,0,0,0,0,0.1909,0.2051,0.2099,0.2128,0.2199,0.232,0.2324,0.2387,0.2449,0.2458,0.2571,0.2596,0.2623,0.2681,0.2696,0.273,0.2788,0.2786,0.2691,0.2676,0.2663,0.2648,0.2799,0,0,0,0,0,0.1883,0.1926,0.2047,0.2061,0.2094,0.2202,0.2235,0.23,0.2378,0.2409,0.249,0.2563,0.2616,0.265,0.2706,0.2722,0.2748,0.2719,0.2706,0.2695,0.2692,0.2701,0.2689,0.282,0.282,0.282,0,0,0.183,0.1912,0.1933,0.2036,0.2099,0.2139,0.2227,0.2267,0.2298,0.2416,0.2458,0.2519,0.2608,0.2635,0.2651,0.2683,0.2662,0.2689,0.2679,0.2683,0.2695,0.2683,0.2672,0.2817,0.2818,0.2818,0,0,0.1753,0.1821,0.1838,0.1898,0.1991,0.2063,0.2066,0.2178,0.2222,0.2267,0.2355,0.2393,0.2484,0.2543,0.2585,0.2525,0.259,0.2541,0.2473,0.2481,0.247,0.2462,0.2438,0.2428,0.2538,0.2538,0.2538,0,0.1676,0.174,0.1839,0.1873,0.1914,0.2022,0.2039,0.2093,0.2199,0.2225,0.226,0.2374,0.2441,0.2482,0.2467,0.2498,0.2504,0.2528,0.2464,0.2456,0.245,0.2428,0.2419,0.2531,0.2532,0.2532,0.2533,0,0.1639,0.1682,0.1685,0.1782,0.1825,0.185,0.1952,0.1982,0.2043,0.211,0.2152,0.2237,0.231,0.2325,0.2386,0.2374,0.239,0.2443,0.2503,0.2428,0.241,0.2403,0.2521,0.2524,0.2526,0.2527,0,0,0.1485,0.1635,0.1634,0.1678,0.1787,0.1822,0.1851,0.1922,0.1945,0.2014,0.204,0.2112,0.216,0.2207,0.2276,0.2282,0.2226,0.2334,0.2338,0.2309,0.2214,0.2172,0.2161,0.227,0.2269,0.2268,0.2206,0,0.1424,0.1481,0.1569,0.1598,0.1637,0.1738,0.1763,0.1831,0.1894,0.1936,0.2007,0.2055,0.2116,0.2145,0.2156,0.223,0.2208,0.2237,0.2293,0.2294,0.2266,0.2153,0.211,0.2047,0.22,0.2199,0.2198,0,0.1361,0.1421,0.1453,0.1555,0.1575,0.1595,0.1666,0.1705,0.1784,0.1829,0.1879,0.1953,0.1987,0.2041,0.2089,0.2106,0.2134,0.2174,0.2174,0.2182,0.224,0.2155,0.203,0.2019,0.2188,0.2189,0.219,0,0.1242,0.1332,0.1362,0.1397,0.1517,0.1529,0.158,0.1661,0.1696,0.1758,0.1782,0.1847,0.1882,0.1929,0.2017,0.205,0.2054,0.2117,0.2091,0.2088,0.2087,0.2085,0.1962,0.2107,0.2107,0.2108,0.2108,0,0.1163,0.1178,0.1309,0.1327,0.1346,0.1446,0.1461,0.1522,0.1592,0.1622,0.1714,0.1741,0.1856,0.1895,0.1964,0.1991,0.2007,0.2043,0.2061,0.2034,0.2029,0.2054,0.2059,0.2105,0.2106,0.2106,0.2107,0,0.1034,0.1123,0.1161,0.1271,0.1299,0.1307,0.1401,0.1421,0.1489,0.1526,0.154,0.1646,0.1697,0.1789,0.1867,0.1913,0.1925,0.1957,0.1898,0.1908,0.1876,0.1877,0.1763,0.1752,0.1905,0.1903,0.1902,0,0.0977,0.099,0.11,0.1126,0.1173,0.1215,0.1251,0.135,0.1384,0.1472,0.1481,0.1539,0.1591,0.1667,0.175,0.1809,0.1842,0.1798,0.1852,0.1823,0.1839,0.1836,0.1837,0.1785,0.1783,0.1781,0.178,0,0.0866,0.0908,0.0957,0.1019,0.1059,0.1113,0.1173,0.1189,0.1301,0.1334,0.1386,0.1426,0.1504,0.1559,0.1629,0.1682,0.1748,0.1762,0.1759,0.1731,0.1695,0.1711,0.1862,0.1764,0.1766,0.1767,0.1768,0.1769,0.077,0.0785,0.0863,0.0913,0.0967,0.1019,0.1043,0.1112,0.1157,0.1227,0.1283,0.133,0.1406,0.1507,0.1554,0.1592,0.1624,0.162,0.1618,0.1615,0.1603,0.1689,0.1606,0.1606,0.1607,0.1607,0.1608,0,0.0661,0.0716,0.0761,0.0839,0.0877,0.0936,0.1004,0.1032,0.1072,0.1136,0.1184,0.1242,0.1296,0.1382,0.1442,0.1455,0.1487,0.1467,0.1466,0.1477,0.1573,0.1568,0.144,0.144,0.144,0.144,0.144,0.144,0.0609,0.0636,0.0687,0.0741,0.0796,0.0842,0.0875,0.0923,0.0975,0.1035,0.1079,0.1135,0.1207,0.1273,0.1323,0.1347,0.1364,0.1334,0.1367,0.1455,0.147,0.1485,0.1482,0.1337,0.1337,0.1268,0.1267,0.1267]}]]